| time (UTC) | temp C | wind direction | speed KPH | gust KPH | rain 1hr cm | rain 24hr cm | rain mn cm | humidity % | barometer mb |
| 20260506222056 | 20 | 152 | 4.8 | 17.7 | 0.00 | 0.33 | 0.33 | 85 | 1008.2 |
| 20260506221556 | 20 | 1 | 4.8 | 17.7 | 0.00 | 0.33 | 0.33 | 86 | 1008.2 |
| 20260506221055 | 20 | 296 | 4.8 | 16.1 | 0.00 | 0.33 | 0.33 | 86 | 1008.1 |
| 20260506220555 | 20 | 354 | 6.4 | 16.1 | 0.00 | 0.33 | 0.33 | 86 | 1008.1 |
| 20260506220056 | 20 | 128 | 4.8 | 17.7 | 0.00 | 0.33 | 0.33 | 86 | 1007.9 |
| 20260506215825 | 20 | 101 | 6.4 | 17.7 | 0.00 | 0.33 | 0.33 | 86 | 1007.8 |
| 20260506215314 | 20 | 218 | 6.4 | 19.3 | 0.00 | 0.33 | 0.33 | 86 | 1007.8 |
| 20260506214556 | 20 | 288 | 6.4 | 19.3 | 0.00 | 0.33 | 0.33 | 86 | 1007.8 |
| 20260506214054 | 20 | 288 | 4.8 | 16.1 | 0.00 | 0.33 | 0.33 | 87 | 1007.9 |
| 20260506213548 | 20 | 1 | 4.8 | 14.5 | 0.00 | 0.33 | 0.33 | 86 | 1007.8 |
| 20260506213042 | 20 | 1 | 3.2 | 14.5 | 0.00 | 0.33 | 0.33 | 86 | 1007.9 |
| 20260506212758 | 20 | 269 | 3.2 | 14.5 | 0.00 | 0.33 | 0.33 | 86 | 1007.8 |
| 20260506212031 | 20 | 241 | 3.2 | 14.5 | 0.00 | 0.33 | 0.33 | 86 | 1007.6 |
| 20260506211524 | 20 | 237 | 3.2 | 11.3 | 0.00 | 0.33 | 0.33 | 86 | 1007.7 |
| 20260506211239 | 20 | 63 | 4.8 | 20.9 | 0.00 | 0.33 | 0.33 | 85 | 1007.6 |
| 20260506210513 | 20 | 206 | 4.8 | 20.9 | 0.00 | 0.33 | 0.33 | 85 | 1007.9 |
| 20260506210007 | 20 | 213 | 4.8 | 20.9 | 0.00 | 0.33 | 0.33 | 85 | 1007.8 |
| 20260506205502 | 21 | 234 | 4.8 | 20.9 | 0.00 | 0.33 | 0.33 | 85 | 1007.6 |
| 20260506204954 | 21 | 46 | 4.8 | 20.9 | 0.00 | 0.33 | 0.33 | 85 | 1007.7 |
| 20260506204449 | 21 | 327 | 6.4 | 20.9 | 0.00 | 0.33 | 0.33 | 85 | 1007.6 |
| 20260506203943 | 20 | 283 | 6.4 | 19.3 | 0.00 | 0.33 | 0.33 | 85 | 1007.5 |
| 20260506203438 | 20 | 245 | 4.8 | 14.5 | 0.00 | 0.33 | 0.33 | 86 | 1007.6 |
| 20260506202931 | 20 | 163 | 4.8 | 14.5 | 0.00 | 0.33 | 0.33 | 86 | 1007.7 |
| 20260506202429 | 20 | 269 | 6.4 | 25.7 | 0.00 | 0.33 | 0.33 | 86 | 1007.7 |
| 20260506201919 | 20 | 135 | 6.4 | 25.7 | 0.00 | 0.33 | 0.33 | 85 | 1007.6 |
| 20260506201424 | 20 | 302 | 4.8 | 16.1 | 0.00 | 0.33 | 0.33 | 86 | 1007.5 |
| 20260506200919 | 20 | 284 | 6.4 | 17.7 | 0.00 | 0.33 | 0.33 | 85 | 1007.6 |
| 20260506200424 | 20 | 4 | 6.4 | 17.7 | 0.00 | 0.33 | 0.33 | 85 | 1007.5 |
| 20260506195918 | 19 | 262 | 4.8 | 19.3 | 0.00 | 0.33 | 0.33 | 84 | 1007.6 |
| 20260506195419 | 19 | 117 | 4.8 | 19.3 | 0.00 | 0.33 | 0.33 | 84 | 1007.5 |
| 20260506194919 | 19 | 296 | 6.4 | 22.5 | 0.00 | 0.33 | 0.33 | 85 | 1007.6 |
| 20260506194419 | 18 | 351 | 6.4 | 22.5 | 0.00 | 0.33 | 0.33 | 85 | 1007.7 |
| 20260506193917 | 18 | 281 | 6.4 | 20.9 | 0.00 | 0.33 | 0.33 | 85 | 1007.8 |
| 20260506193416 | 18 | 165 | 4.8 | 14.5 | 0.00 | 0.33 | 0.33 | 86 | 1007.9 |
| 20260506192913 | 18 | 74 | 4.8 | 14.5 | 0.00 | 0.33 | 0.33 | 86 | 1007.9 |
| 20260506192411 | 17 | 1 | 4.8 | 16.1 | 0.00 | 0.33 | 0.33 | 86 | 1007.9 |
| 20260506192135 | 17 | 135 | 4.8 | 17.7 | 0.00 | 0.33 | 0.33 | 86 | 1008.0 |
| 20260506191451 | 17 | 140 | 3.2 | 17.7 | 0.00 | 0.33 | 0.33 | 87 | 1008.0 |
| 20260506190407 | 17 | 296 | 3.2 | 17.7 | 0.00 | 0.33 | 0.33 | 86 | 1008.2 |
| 20260506185905 | 17 | 223 | 3.2 | 12.9 | 0.00 | 0.33 | 0.33 | 86 | 1008.1 |
| 20260506185405 | 16 | 89 | 4.8 | 14.5 | 0.00 | 0.33 | 0.33 | 86 | 1008.2 |
| 20260506185123 | 16 | 1 | 4.8 | 14.5 | 0.00 | 0.33 | 0.33 | 86 | 1008.3 |
| 20260506184405 | 16 | 314 | 4.8 | 14.5 | 0.00 | 0.33 | 0.33 | 86 | 1008.4 |
| 20260506183905 | 16 | 266 | 4.8 | 16.1 | 0.00 | 0.33 | 0.33 | 86 | 1008.3 |
| 20260506183404 | 16 | 352 | 4.8 | 16.1 | 0.00 | 0.33 | 0.33 | 87 | 1008.4 |
| 20260506182906 | 16 | 59 | 4.8 | 17.7 | 0.00 | 0.33 | 0.33 | 87 | 1008.3 |
| 20260506182406 | 16 | 139 | 6.4 | 17.7 | 0.00 | 0.33 | 0.33 | 87 | 1008.4 |
| 20260506181905 | 16 | 274 | 6.4 | 17.7 | 0.00 | 0.33 | 0.33 | 87 | 1008.4 |
| 20260506181404 | 16 | 295 | 6.4 | 17.7 | 0.00 | 0.33 | 0.33 | 87 | 1008.5 |
| 20260506181124 | 16 | 248 | 4.8 | 17.7 | 0.00 | 0.33 | 0.33 | 87 | 1008.5 |
| 20260506180405 | 16 | 231 | 4.8 | 17.7 | 0.00 | 0.33 | 0.33 | 87 | 1008.6 |
| 20260506175909 | 16 | 276 | 4.8 | 17.7 | 0.00 | 0.33 | 0.33 | 87 | 1008.6 |
| 20260506175405 | 16 | 306 | 4.8 | 17.7 | 0.00 | 0.33 | 0.33 | 87 | 1008.5 |
| 20260506174909 | 16 | 253 | 4.8 | 17.7 | 0.00 | 0.33 | 0.33 | 88 | 1008.5 |
| 20260506174628 | 16 | 286 | 4.8 | 17.7 | 0.00 | 0.33 | 0.33 | 88 | 1008.5 |
| 20260506174132 | 16 | 143 | 4.8 | 17.7 | 0.00 | 0.33 | 0.33 | 88 | 1008.6 |
| 20260506173622 | 16 | 241 | 4.8 | 20.9 | 0.00 | 0.33 | 0.33 | 88 | 1008.6 |
| 20260506172901 | 16 | 314 | 4.8 | 20.9 | 0.00 | 0.33 | 0.33 | 88 | 1008.7 |
| 20260506172358 | 16 | 113 | 4.8 | 16.1 | 0.00 | 0.33 | 0.33 | 88 | 1008.7 |
| 20260506172115 | 16 | 228 | 4.8 | 29.0 | 0.00 | 0.33 | 0.33 | 88 | 1008.8 |
| 20260506171358 | 16 | 218 | 6.4 | 29.0 | 0.00 | 0.33 | 0.33 | 88 | 1008.7 |
| 20260506170858 | 16 | 284 | 6.4 | 20.9 | 0.00 | 0.33 | 0.33 | 88 | 1008.8 |
| 20260506170358 | 16 | 223 | 4.8 | 20.9 | 0.00 | 0.33 | 0.33 | 88 | 1008.7 |
| 20260506170122 | 16 | 28 | 6.4 | 22.5 | 0.03 | 0.33 | 0.33 | 89 | 1008.8 |
| 20260506165401 | 16 | 223 | 6.4 | 22.5 | 0.03 | 0.33 | 0.33 | 89 | 1008.9 |
| 20260506164852 | 16 | 245 | 4.8 | 14.5 | 0.05 | 0.33 | 0.33 | 89 | 1008.9 |
| 20260506164351 | 16 | 152 | 4.8 | 14.5 | 0.08 | 0.33 | 0.33 | 89 | 1008.8 |
| 20260506163840 | 16 | 269 | 4.8 | 20.9 | 0.10 | 0.33 | 0.33 | 89 | 1008.9 |
| 20260506163340 | 16 | 232 | 4.8 | 20.9 | 0.10 | 0.33 | 0.33 | 89 | 1008.9 |
| 20260506162828 | 16 | 288 | 4.8 | 14.5 | 0.10 | 0.33 | 0.33 | 89 | 1009.0 |
| 20260506162327 | 16 | 286 | 6.4 | 19.3 | 0.13 | 0.33 | 0.33 | 89 | 1009.1 |
| 20260506161816 | 16 | 20 | 4.8 | 19.3 | 0.13 | 0.33 | 0.33 | 89 | 1009.2 |
| 20260506161310 | 16 | 129 | 4.8 | 12.9 | 0.13 | 0.33 | 0.33 | 90 | 1009.2 |
| 20260506160803 | 16 | 155 | 4.8 | 16.1 | 0.13 | 0.33 | 0.33 | 90 | 1009.2 |
| 20260506160525 | 16 | 262 | 3.2 | 14.5 | 0.15 | 0.33 | 0.33 | 90 | 1009.1 |
| 20260506155751 | 16 | 46 | 3.2 | 11.3 | 0.13 | 0.30 | 0.30 | 90 | 1009.1 |
| 20260506155246 | 16 | 223 | 3.2 | 11.3 | 0.15 | 0.30 | 0.30 | 90 | 1009.3 |
| 20260506154740 | 16 | 202 | 4.8 | 12.9 | 0.15 | 0.28 | 0.28 | 90 | 1009.7 |
| 20260506154451 | 16 | 219 | 4.8 | 12.9 | 0.15 | 0.25 | 0.25 | 90 | 1009.8 |
| 20260506153728 | 16 | 269 | 4.8 | 19.3 | 0.15 | 0.23 | 0.23 | 90 | 1009.8 |
| 20260506153226 | 16 | 241 | 3.2 | 19.3 | 0.15 | 0.23 | 0.23 | 90 | 1010.0 |
| 20260506152934 | 16 | 296 | 3.2 | 19.3 | 0.18 | 0.23 | 0.23 | 91 | 1010.2 |
| 20260506152219 | 16 | 145 | 3.2 | 11.3 | 0.15 | 0.20 | 0.20 | 91 | 1010.0 |
| 20260506151714 | 16 | 262 | 3.2 | 9.7 | 0.15 | 0.20 | 0.20 | 91 | 1010.2 |
| 20260506151214 | 16 | 234 | 3.2 | 8.0 | 0.18 | 0.20 | 0.20 | 91 | 1010.0 |
| 20260506150714 | 16 | 20 | 3.2 | 8.0 | 0.18 | 0.20 | 0.20 | 91 | 1009.9 |
| 20260506150212 | 16 | 218 | 4.8 | 22.5 | 0.18 | 0.18 | 0.18 | 91 | 1009.8 |
| 20260506145710 | 16 | 51 | 4.8 | 22.5 | 0.18 | 0.18 | 0.18 | 91 | 1009.8 |
| 20260506145208 | 16 | 145 | 4.8 | 17.7 | 0.13 | 0.13 | 0.15 | 90 | 1009.7 |
| 20260506144706 | 16 | 190 | 4.8 | 17.7 | 0.13 | 0.13 | 0.13 | 90 | 1009.8 |
| 20260506144206 | 16 | 257 | 4.8 | 14.5 | 0.10 | 0.10 | 0.10 | 90 | 1009.7 |
| 20260506144152 | 16 | 321 | 4.8 | 14.5 | 0.08 | 0.08 | 0.08 | 90 | 1009.8 |
| 20260506143206 | 16 | 1 | 4.8 | 14.5 | 0.08 | 0.08 | 0.08 | 90 | 1009.9 |
| 20260506142710 | 17 | 250 | 4.8 | 14.5 | 0.05 | 0.05 | 0.05 | 90 | 1010.0 |
| 20260506142204 | 17 | 269 | 4.8 | 14.5 | 0.05 | 0.05 | 0.05 | 89 | 1010.0 |
| 20260506141702 | 17 | 193 | 4.8 | 16.1 | 0.05 | 0.05 | 0.05 | 89 | 1010.0 |
| 20260506141201 | 17 | 269 | 3.2 | 16.1 | 0.03 | 0.03 | 0.03 | 89 | 1009.9 |
| 20260506140702 | 17 | 135 | 3.2 | 14.5 | 0.03 | 0.03 | 0.03 | 88 | 1009.9 |
| 20260506140202 | 17 | 321 | 4.8 | 17.7 | 0.00 | 0.00 | 0.00 | 87 | 1010.0 |
| 20260506135701 | 17 | 269 | 4.8 | 20.9 | 0.00 | 0.00 | 0.00 | 86 | 1010.0 |
| 20260506135201 | 17 | 253 | 4.8 | 20.9 | 0.00 | 0.00 | 0.00 | 86 | 1010.0 |
| 20260506134930 | 17 | 235 | 4.8 | 20.9 | 0.00 | 0.00 | 0.00 | 85 | 1009.9 |
| 20260506134201 | 18 | 310 | 6.4 | 20.9 | 0.00 | 0.00 | 0.00 | 85 | 1009.9 |
| 20260506133924 | 18 | 74 | 4.8 | 20.9 | 0.00 | 0.00 | 0.00 | 85 | 1009.8 |
| 20260506133202 | 18 | 89 | 4.8 | 24.1 | 0.00 | 0.00 | 0.00 | 86 | 1009.7 |
| 20260506132702 | 17 | 277 | 4.8 | 24.1 | 0.00 | 0.00 | 0.00 | 86 | 1009.7 |
| 20260506132159 | 17 | 269 | 6.4 | 24.1 | 0.00 | 0.00 | 0.00 | 86 | 1009.8 |
| 20260506131653 | 17 | 68 | 6.4 | 24.1 | 0.00 | 0.00 | 0.00 | 86 | 1009.7 |
| 20260506131146 | 17 | 269 | 6.4 | 30.6 | 0.00 | 0.00 | 0.00 | 86 | 1009.9 |
| 20260506130645 | 17 | 148 | 6.4 | 30.6 | 0.00 | 0.00 | 0.00 | 85 | 1009.8 |
| 20260506130134 | 17 | 235 | 6.4 | 19.3 | 0.00 | 0.00 | 0.00 | 85 | 1009.9 |
| 20260506125629 | 17 | 148 | 4.8 | 19.3 | 0.00 | 0.00 | 0.00 | 85 | 1010.0 |
| 20260506125344 | 17 | 230 | 4.8 | 22.5 | 0.00 | 0.00 | 0.00 | 84 | 1010.0 |
| 20260506124616 | 17 | 1 | 6.4 | 22.5 | 0.00 | 0.00 | 0.00 | 84 | 1010.0 |
| 20260506124332 | 18 | 314 | 6.4 | 22.5 | 0.00 | 0.00 | 0.00 | 84 | 1010.0 |
| 20260506123605 | 18 | 255 | 4.8 | 17.7 | 0.00 | 0.00 | 0.00 | 85 | 1010.2 |
| 20260506123058 | 18 | 303 | 6.4 | 17.7 | 0.00 | 0.00 | 0.00 | 84 | 1010.0 |
| 20260506122551 | 18 | 11 | 6.4 | 25.7 | 0.00 | 0.00 | 0.00 | 84 | 1010.0 |
| 20260506122316 | 18 | 210 | 8.0 | 25.7 | 0.00 | 0.00 | 0.00 | 84 | 1010.0 |
| 20260506121539 | 18 | 264 | 6.4 | 20.9 | 0.00 | 0.00 | 0.00 | 84 | 1010.0 |
| 20260506121033 | 18 | 260 | 6.4 | 19.3 | 0.00 | 0.00 | 0.00 | 85 | 1009.9 |
| 20260506120526 | 18 | 121 | 8.0 | 27.4 | 0.00 | 0.00 | 0.00 | 85 | 1009.8 |
| 20260506120021 | 18 | 264 | 6.4 | 27.4 | 0.00 | 0.00 | 0.00 | 84 | 1009.8 |
| 20260506115515 | 18 | 286 | 6.4 | 17.7 | 0.00 | 0.00 | 0.00 | 85 | 1009.7 |
| 20260506115227 | 18 | 262 | 6.4 | 17.7 | 0.00 | 0.00 | 0.00 | 84 | 1009.7 |
| 20260506114503 | 18 | 46 | 6.4 | 17.7 | 0.00 | 0.00 | 0.00 | 84 | 1009.7 |
| 20260506113957 | 18 | 89 | 6.4 | 20.9 | 0.00 | 0.00 | 0.00 | 85 | 1009.6 |
| 20260506113451 | 17 | 260 | 6.4 | 22.5 | 0.00 | 0.00 | 0.00 | 84 | 1009.6 |
| 20260506113206 | 17 | 227 | 6.4 | 22.5 | 0.00 | 0.00 | 0.00 | 85 | 1009.6 |
| 20260506112438 | 17 | 290 | 8.0 | 29.0 | 0.00 | 0.00 | 0.00 | 84 | 1009.4 |
| 20260506111933 | 17 | 219 | 6.4 | 29.0 | 0.00 | 0.00 | 0.00 | 84 | 1009.4 |
| 20260506111427 | 17 | 257 | 6.4 | 24.1 | 0.00 | 0.00 | 0.00 | 85 | 1009.4 |
| 20260506110921 | 17 | 230 | 4.8 | 17.7 | 0.00 | 0.00 | 0.00 | 85 | 1009.5 |
| 20260506110633 | 17 | 283 | 4.8 | 17.7 | 0.00 | 0.00 | 0.00 | 85 | 1009.5 |
| 20260506105909 | 17 | 248 | 6.4 | 17.7 | 0.00 | 0.00 | 0.00 | 85 | 1009.4 |
| 20260506105402 | 17 | 250 | 6.4 | 22.5 | 0.00 | 0.00 | 0.00 | 85 | 1009.4 |
| 20260506104857 | 17 | 161 | 6.4 | 22.5 | 0.00 | 0.00 | 0.00 | 85 | 1009.3 |
| 20260506104351 | 17 | 234 | 6.4 | 20.9 | 0.00 | 0.00 | 0.00 | 85 | 1009.3 |
| 20260506104338 | 17 | 252 | 4.8 | 20.9 | 0.00 | 0.00 | 0.00 | 85 | 1009.3 |
| 20260506103349 | 17 | 244 | 4.8 | 20.9 | 0.00 | 0.00 | 0.00 | 85 | 1009.3 |
| 20260506103112 | 17 | 220 | 4.8 | 20.9 | 0.00 | 0.00 | 0.00 | 85 | 1009.3 |
| 20260506102610 | 17 | 250 | 4.8 | 16.1 | 0.00 | 0.00 | 0.00 | 85 | 1009.3 |
| 20260506101848 | 17 | 223 | 4.8 | 14.5 | 0.00 | 0.00 | 0.00 | 85 | 1009.3 |
| 20260506101349 | 17 | 206 | 4.8 | 14.5 | 0.00 | 0.00 | 0.00 | 85 | 1009.3 |
| 20260506100849 | 17 | 272 | 4.8 | 16.1 | 0.00 | 0.00 | 0.00 | 85 | 1009.2 |
| 20260506100349 | 17 | 206 | 4.8 | 29.0 | 0.00 | 0.00 | 0.00 | 85 | 1009.3 |
| 20260506095850 | 17 | 338 | 4.8 | 29.0 | 0.00 | 0.00 | 0.00 | 85 | 1009.3 |
| 20260506095350 | 17 | 234 | 4.8 | 29.0 | 0.00 | 0.00 | 0.00 | 84 | 1009.3 |
| 20260506094848 | 17 | 257 | 6.4 | 29.0 | 0.00 | 0.00 | 0.00 | 84 | 1009.2 |
| 20260506094612 | 17 | 274 | 6.4 | 17.7 | 0.00 | 0.00 | 0.00 | 84 | 1009.1 |
| 20260506093847 | 17 | 331 | 6.4 | 17.7 | 0.00 | 0.00 | 0.00 | 84 | 1009.3 |
| 20260506093347 | 17 | 216 | 6.4 | 22.5 | 0.00 | 0.00 | 0.00 | 84 | 1009.3 |
| 20260506093105 | 18 | 213 | 4.8 | 25.7 | 0.00 | 0.00 | 0.00 | 84 | 1009.4 |
| 20260506092344 | 18 | 255 | 4.8 | 25.7 | 0.00 | 0.00 | 0.00 | 83 | 1009.4 |
| 20260506091844 | 18 | 178 | 4.8 | 17.7 | 0.00 | 0.00 | 0.00 | 83 | 1009.4 |
| 20260506091345 | 18 | 241 | 4.8 | 20.9 | 0.00 | 0.00 | 0.00 | 83 | 1009.4 |
| 20260506090845 | 18 | 283 | 4.8 | 20.9 | 0.00 | 0.00 | 0.00 | 83 | 1009.4 |
| 20260506090345 | 18 | 318 | 6.4 | 19.3 | 0.00 | 0.00 | 0.00 | 83 | 1009.4 |
| 20260506085845 | 18 | 283 | 6.4 | 22.5 | 0.00 | 0.00 | 0.00 | 82 | 1009.5 |
| 20260506085345 | 18 | 197 | 4.8 | 22.5 | 0.00 | 0.00 | 0.00 | 82 | 1009.4 |
| 20260506084844 | 18 | 241 | 4.8 | 16.1 | 0.00 | 0.00 | 0.00 | 82 | 1009.4 |
| 20260506084343 | 18 | 314 | 4.8 | 16.1 | 0.00 | 0.00 | 0.00 | 82 | 1009.4 |
| 20260506083838 | 18 | 15 | 4.8 | 16.1 | 0.00 | 0.00 | 0.00 | 82 | 1009.4 |
| 20260506083332 | 18 | 218 | 4.8 | 16.1 | 0.00 | 0.00 | 0.00 | 82 | 1009.4 |
| 20260506082826 | 18 | 284 | 6.4 | 22.5 | 0.00 | 0.00 | 0.00 | 82 | 1009.3 |
| 20260506082320 | 18 | 150 | 6.4 | 22.5 | 0.00 | 0.00 | 0.00 | 82 | 1009.3 |
| 20260506082036 | 18 | 165 | 8.0 | 24.1 | 0.00 | 0.00 | 0.00 | 82 | 1009.4 |
| 20260506081308 | 18 | 223 | 8.0 | 27.4 | 0.00 | 0.00 | 0.00 | 82 | 1009.4 |
| 20260506080802 | 18 | 310 | 8.0 | 27.4 | 0.00 | 0.00 | 0.00 | 82 | 1009.4 |
| 20260506080256 | 18 | 253 | 8.0 | 22.5 | 0.00 | 0.00 | 0.00 | 82 | 1009.5 |
| 20260506073220 | 18 | 210 | 6.4 | 29.0 | 0.00 | 0.00 | 0.00 | 82 | 1009.7 |
| 20260506073149 | 18 | 178 | 6.4 | 20.9 | 0.00 | 0.00 | 0.00 | 82 | 1009.7 |
| 20260506072208 | 18 | 223 | 6.4 | 24.1 | 0.00 | 0.00 | 0.00 | 82 | 1009.7 |
| 20260506071702 | 18 | 244 | 4.8 | 24.1 | 0.00 | 0.00 | 0.00 | 82 | 1009.8 |
| 20260506071156 | 18 | 199 | 6.4 | 24.1 | 0.00 | 0.00 | 0.00 | 82 | 1009.7 |
| 20260506070650 | 18 | 164 | 6.4 | 24.1 | 0.00 | 0.00 | 0.00 | 82 | 1009.7 |
| 20260506070144 | 18 | 286 | 6.4 | 20.9 | 0.00 | 0.00 | 0.00 | 82 | 1009.8 |
| 20260506062326 | 18 | 25 | 4.8 | 14.5 | 0.00 | 0.00 | 0.00 | 80 | 1010.3 |
| 20260506061606 | 19 | 35 | 4.8 | 11.3 | 0.00 | 0.00 | 0.00 | 79 | 1010.3 |
| 20260506061106 | 19 | 231 | 3.2 | 19.3 | 0.00 | 0.00 | 0.00 | 79 | 1010.3 |
| 20260506060606 | 19 | 206 | 4.8 | 19.3 | 0.00 | 0.00 | 0.00 | 79 | 1010.3 |
| 20260506060333 | 19 | 223 | 4.8 | 12.9 | 0.00 | 0.00 | 0.00 | 79 | 1010.4 |
| 20260506051058 | 19 | 214 | 4.8 | 16.1 | 0.00 | 0.00 | 0.00 | 77 | 1010.6 |
| 20260506050558 | 19 | 245 | 4.8 | 16.1 | 0.00 | 0.00 | 0.00 | 77 | 1010.7 |
| 20260506050533 | 19 | 283 | 3.2 | 14.5 | 0.00 | 0.00 | 0.00 | 77 | 1010.7 |
| 20260506045056 | 19 | 314 | 3.2 | 11.3 | 0.00 | 0.00 | 0.00 | 77 | 1010.7 |
| 20260506044556 | 19 | 218 | 3.2 | 12.9 | 0.00 | 0.00 | 0.00 | 77 | 1010.7 |
| 20260506044541 | 19 | 135 | 4.8 | 14.5 | 0.00 | 0.00 | 0.00 | 77 | 1010.7 |
| 20260506043555 | 19 | 269 | 4.8 | 14.5 | 0.00 | 0.00 | 0.00 | 76 | 1010.7 |
| 20260506043056 | 19 | 278 | 4.8 | 12.9 | 0.00 | 0.00 | 0.00 | 76 | 1010.7 |
| 20260506042556 | 19 | 262 | 4.8 | 12.9 | 0.00 | 0.00 | 0.00 | 76 | 1010.7 |
| 20260506042056 | 19 | 269 | 3.2 | 12.9 | 0.00 | 0.00 | 0.00 | 76 | 1010.8 |
| 20260506041555 | 19 | 297 | 3.2 | 12.9 | 0.00 | 0.00 | 0.00 | 76 | 1010.7 |
| 20260506041053 | 19 | 286 | 3.2 | 12.9 | 0.00 | 0.00 | 0.00 | 76 | 1010.8 |
| 20260506040811 | 19 | 284 | 3.2 | 12.9 | 0.00 | 0.00 | 0.00 | 76 | 1010.8 |
| 20260506040053 | 20 | 156 | 3.2 | 12.9 | 0.00 | 0.00 | 0.00 | 76 | 1010.8 |
| 20260506035553 | 20 | 276 | 3.2 | 12.9 | 0.00 | 0.00 | 0.00 | 76 | 1010.7 |
| 20260506035053 | 20 | 250 | 4.8 | 16.1 | 0.00 | 0.00 | 0.00 | 76 | 1010.7 |
| 20260506034552 | 20 | 258 | 3.2 | 16.1 | 0.00 | 0.00 | 0.00 | 75 | 1010.7 |
| 20260506034052 | 20 | 89 | 3.2 | 12.9 | 0.00 | 0.00 | 0.00 | 75 | 1010.6 |
| 20260506033552 | 20 | 269 | 4.8 | 12.9 | 0.00 | 0.00 | 0.00 | 75 | 1010.6 |
| 20260506033137 | 20 | 257 | 3.2 | 16.1 | 0.00 | 0.00 | 0.00 | 75 | 1010.6 |
| 20260506032048 | 20 | 248 | 3.2 | 19.3 | 0.00 | 0.00 | 0.00 | 75 | 1010.5 |
| 20260506031548 | 20 | 269 | 3.2 | 19.3 | 0.00 | 0.00 | 0.00 | 75 | 1010.6 |
| 20260506031530 | 20 | 178 | 3.2 | 14.5 | 0.00 | 0.00 | 0.00 | 75 | 1010.6 |
| 20260506030548 | 20 | 211 | 4.8 | 14.5 | 0.00 | 0.00 | 0.00 | 75 | 1010.6 |
| 20260506030529 | 20 | 108 | 4.8 | 16.1 | 0.00 | 0.00 | 0.00 | 75 | 1010.6 |
| 20260506025801 | 20 | 223 | 3.2 | 19.3 | 0.00 | 0.00 | 0.00 | 75 | 1010.6 |
| 20260506025035 | 20 | 89 | 3.2 | 9.7 | 0.00 | 0.00 | 0.00 | 75 | 1010.6 |
| 20260506024529 | 20 | 241 | 3.2 | 17.7 | 0.00 | 0.00 | 0.00 | 74 | 1010.7 |
| 20260506024024 | 20 | 184 | 3.2 | 17.7 | 0.00 | 0.00 | 0.00 | 74 | 1010.8 |
| 20260506023518 | 20 | 193 | 3.2 | 16.1 | 0.00 | 0.00 | 0.00 | 74 | 1010.8 |
| 20260506023012 | 20 | 223 | 4.8 | 16.1 | 0.00 | 0.00 | 0.00 | 74 | 1010.8 |
| 20260506022506 | 20 | 257 | 4.8 | 12.9 | 0.00 | 0.00 | 0.00 | 74 | 1010.9 |
| 20260506022000 | 20 | 145 | 4.8 | 12.9 | 0.00 | 0.00 | 0.00 | 74 | 1010.9 |
| 20260506021454 | 20 | 223 | 4.8 | 17.7 | 0.00 | 0.00 | 0.00 | 74 | 1010.8 |
| 20260506020948 | 20 | 255 | 3.2 | 17.7 | 0.00 | 0.00 | 0.00 | 73 | 1010.8 |
| 20260506020442 | 20 | 286 | 4.8 | 14.5 | 0.00 | 0.00 | 0.00 | 73 | 1010.8 |
| 20260506015935 | 20 | 269 | 4.8 | 14.5 | 0.00 | 0.00 | 0.00 | 73 | 1010.7 |
| 20260506015429 | 20 | 206 | 4.8 | 14.5 | 0.00 | 0.00 | 0.00 | 73 | 1010.6 |
| 20260506014923 | 21 | 231 | 3.2 | 14.5 | 0.00 | 0.00 | 0.00 | 73 | 1010.6 |
| 20260506014418 | 21 | 283 | 3.2 | 9.7 | 0.00 | 0.00 | 0.00 | 73 | 1010.5 |
| 20260506013912 | 21 | 296 | 3.2 | 14.5 | 0.00 | 0.00 | 0.00 | 72 | 1010.4 |
| 20260506013410 | 21 | 223 | 3.2 | 14.5 | 0.00 | 0.00 | 0.00 | 72 | 1010.4 |
| 20260506012910 | 21 | 262 | 3.2 | 12.9 | 0.00 | 0.00 | 0.00 | 72 | 1010.4 |
| 20260506012409 | 21 | 269 | 3.2 | 12.9 | 0.00 | 0.00 | 0.00 | 72 | 1010.3 |
| 20260506011908 | 21 | 317 | 4.8 | 12.9 | 0.00 | 0.00 | 0.00 | 71 | 1010.2 |
| 20260506011406 | 21 | 28 | 4.8 | 12.9 | 0.00 | 0.00 | 0.00 | 71 | 1010.2 |
| 20260506010906 | 21 | 178 | 4.8 | 20.9 | 0.00 | 0.00 | 0.00 | 71 | 1010.0 |
| 20260506010406 | 22 | 257 | 4.8 | 20.9 | 0.00 | 0.00 | 0.00 | 70 | 1010.0 |
| 20260506005906 | 22 | 276 | 4.8 | 22.5 | 0.00 | 0.00 | 0.00 | 70 | 1010.0 |
| 20260506005630 | 22 | 130 | 4.8 | 22.5 | 0.00 | 0.00 | 0.00 | 70 | 1009.9 |
| 20260506005126 | 22 | 271 | 3.2 | 20.9 | 0.00 | 0.00 | 0.00 | 70 | 1009.8 |
| 20260506004404 | 22 | 206 | 3.2 | 14.5 | 0.00 | 0.00 | 0.00 | 69 | 1009.8 |
| 20260506003904 | 22 | 314 | 4.8 | 12.9 | 0.00 | 0.00 | 0.00 | 69 | 1009.7 |
| 20260506003623 | 22 | 206 | 4.8 | 17.7 | 0.00 | 0.00 | 0.00 | 69 | 1009.7 |
| 20260506002902 | 22 | 178 | 4.8 | 17.7 | 0.00 | 0.00 | 0.00 | 69 | 1009.7 |
| 20260506002359 | 22 | 278 | 6.4 | 27.4 | 0.00 | 0.00 | 0.00 | 68 | 1009.6 |
| 20260506001858 | 22 | 314 | 6.4 | 27.4 | 0.00 | 0.00 | 0.00 | 68 | 1009.6 |
| 20260506001358 | 23 | 227 | 4.8 | 19.3 | 0.00 | 0.00 | 0.00 | 67 | 1009.5 |
| 20260506000854 | 23 | 199 | 4.8 | 19.3 | 0.00 | 0.00 | 0.00 | 66 | 1009.4 |
| 20260506000354 | 23 | 149 | 3.2 | 9.7 | 0.00 | 0.00 | 0.00 | 66 | 1009.4 |
| 20260505235853 | 23 | 140 | 3.2 | 12.9 | 0.00 | 0.00 | 0.00 | 65 | 1009.4 |
| 20260505235354 | 23 | 283 | 3.2 | 12.9 | 0.00 | 0.00 | 0.00 | 65 | 1009.3 |
| 20260505234854 | 23 | 324 | 4.8 | 17.7 | 0.00 | 0.00 | 0.00 | 64 | 1009.2 |
| 20260505234354 | 23 | 218 | 4.8 | 17.7 | 0.00 | 0.00 | 0.00 | 64 | 1009.1 |
| 20260505233853 | 23 | 303 | 3.2 | 16.1 | 0.00 | 0.00 | 0.00 | 64 | 1009.1 |
| 20260505233354 | 23 | 331 | 3.2 | 12.9 | 0.00 | 0.00 | 0.00 | 64 | 1009.1 |
| 20260505232854 | 23 | 234 | 3.2 | 12.9 | 0.00 | 0.00 | 0.00 | 64 | 1009.1 |
| 20260505232348 | 24 | 53 | 3.2 | 19.3 | 0.00 | 0.00 | 0.00 | 64 | 1009.2 |
| 20260505231841 | 24 | 28 | 3.2 | 17.7 | 0.00 | 0.00 | 0.00 | 63 | 1009.2 |
| 20260505231335 | 24 | 124 | 3.2 | 17.7 | 0.00 | 0.00 | 0.00 | 63 | 1009.2 |
| 20260505230829 | 24 | 314 | 4.8 | 12.9 | 0.00 | 0.00 | 0.00 | 62 | 1009.2 |
| 20260505230323 | 25 | 253 | 4.8 | 14.5 | 0.00 | 0.00 | 0.00 | 62 | 1009.1 |
| 20260505225817 | 25 | 178 | 4.8 | 20.9 | 0.00 | 0.00 | 0.00 | 62 | 1009.1 |
| 20260505225311 | 25 | 46 | 6.4 | 20.9 | 0.00 | 0.00 | 0.00 | 62 | 1009.1 |
| 20260505224805 | 25 | 252 | 4.8 | 16.1 | 0.00 | 0.00 | 0.00 | 62 | 1009.1 |
| 20260505224258 | 25 | 258 | 6.4 | 27.4 | 0.00 | 0.00 | 0.00 | 62 | 1009.1 |
| 20260505223755 | 25 | 53 | 8.0 | 27.4 | 0.00 | 0.00 | 0.00 | 61 | 1009.0 |
| 20260505223247 | 25 | 307 | 8.0 | 27.4 | 0.00 | 0.00 | 0.00 | 60 | 1009.1 |
| 20260505222741 | 26 | 257 | 9.7 | 25.7 | 0.00 | 0.00 | 0.00 | 60 | 1009.1 |